FW1294 Weather Reports


time (UTC)temp
F
wind
direction
speed
knots
gust
knots
rain 1hr
in
rain 24hr
in
rain mn
in
humidity
%
barometer
mb
20220124095758 33 315 0.0 0.0 0.00 0.00 0.00 90 1011.7
20220124094908 33 285 0.0 0.0 0.00 0.00 0.00 90 1011.6
20220124093918 33 225 0.0 0.0 0.00 0.00 0.00 90 1011.4
20220124093300 33 360 0.0 0.0 0.00 0.00 0.00 90 1011.4
20220124092529 33 300 0.0 0.0 0.00 0.00 0.00 90 1011.4
20220124092020 33 315 0.0 0.0 0.00 0.00 0.00 90 1011.3
20220124091248 33 315 0.0 0.0 0.00 0.00 0.00 90 1011.1
20220124090530 34 45 0.0 0.0 0.00 0.00 0.00 90 1011.1
20220124085618 34 120 0.0 0.0 0.00 0.00 0.00 90 1011.1
20220124084831 34 135 0.0 0.0 0.00 0.00 0.00 90 1011.1
20220124084147 34 135 0.0 0.0 0.00 0.00 0.00 90 1011.0
20220124083447 34 135 0.0 0.0 0.00 0.00 0.00 90 1011.0
20220124082645 34 225 0.0 0.0 0.00 0.00 0.00 90 1011.0
20220124081919 34 300 0.0 0.0 0.00 0.00 0.00 90 1011.0
20220124081249 34 75 0.0 0.0 0.00 0.00 0.00 90 1011.0
20220124080354 34 360 0.0 0.0 0.00 0.00 0.00 90 1010.9
20220124075358 34 360 0.0 0.0 0.00 0.00 0.00 90 1010.9
20220124074851 34 360 0.0 0.0 0.00 0.00 0.00 90 1010.9
20220124074036 34 360 0.0 0.0 0.00 0.00 0.00 90 1011.0
20220124073136 34 360 0.0 0.0 0.00 0.00 0.00 90 1011.0
20220124072359 34 360 0.0 0.0 0.00 0.00 0.00 90 1011.0
20220124071417 34 360 0.0 0.0 0.00 0.00 0.00 90 1011.0
20220124070648 34 360 0.0 0.0 0.00 0.00 0.00 90 1011.0
20220124065813 34 360 0.0 0.0 0.00 0.00 0.00 90 1010.8
20220124065212 33 360 0.0 0.0 0.00 0.00 0.00 90 1010.9
20220124064324 33 360 0.0 0.0 0.00 0.00 0.00 90 1010.9
20220124063531 33 360 0.0 0.0 0.00 0.00 0.00 90 1010.8
20220124062558 33 360 0.0 0.0 0.00 0.00 0.00 90 1010.8
20220124061709 33 360 0.0 0.0 0.00 0.00 0.00 90 1010.7
20220124060726 33 315 0.0 0.0 0.00 0.00 0.00 90 1010.7
20220124055952 33 315 0.0 0.0 0.00 0.00 0.00 90 1010.7
20220124055330 33 135 0.0 0.0 0.00 0.00 0.00 90 1010.8
20220124054611 32 135 0.0 0.0 0.00 0.00 0.00 90 1010.9
20220124053643 32 30 0.0 0.0 0.00 0.00 0.00 90 1011.1
20220124052722 33 315 0.0 0.0 0.00 0.00 0.00 90 1011.1
20220124052012 33 330 0.0 0.0 0.00 0.00 0.00 90 1011.0
20220124051319 33 285 0.0 0.0 0.00 0.00 0.00 90 1010.6
20220124050642 33 225 0.0 0.0 0.00 0.00 0.00 90 1010.5
20220124050109 33 225 0.0 0.0 0.00 0.00 0.00 90 1010.5
20220124045450 33 225 0.0 0.0 0.00 0.00 2.38 90 1010.4
20220124044721 33 225 0.0 0.0 0.00 0.00 2.38 90 1010.4
20220124044008 34 225 0.0 0.0 0.00 0.00 2.38 90 1010.4
20220124043455 34 225 0.0 0.0 0.00 0.00 2.38 90 1010.4
20220124042849 34 105 0.0 0.0 0.00 0.00 2.38 90 1010.5
20220124041854 35 180 0.0 0.0 0.00 0.00 2.38 89 1010.5
20220124041335 35 180 0.0 0.0 0.00 0.00 2.38 88 1010.5
20220124040633 35 180 0.0 0.0 0.00 0.00 2.38 90 1010.6
20220124040056 34 165 0.0 0.0 0.00 0.00 2.38 90 1010.6
20220124035356 34 180 0.0 0.0 0.00 0.00 2.38 90 1010.5
20220124034406 34 180 0.0 0.0 0.00 0.00 2.38 90 1010.4
20220124033649 34 195 0.0 0.0 0.00 0.00 2.38 90 1010.3
20220124032656 33 135 0.0 0.0 0.00 0.00 2.38 90 1010.4
20220124031757 33 180 0.0 0.0 0.00 0.00 2.38 90 1010.4
20220124031034 33 195 0.0 0.0 0.00 0.00 2.38 90 1010.4
20220124030435 33 180 0.0 0.0 0.00 0.00 2.38 90 1010.2
20220124025655 33 120 0.0 0.0 0.00 0.00 2.38 90 1010.2
20220124024827 33 180 0.0 0.0 0.00 0.00 2.38 90 1010.2
20220124023832 33 315 0.0 0.0 0.00 0.00 2.38 90 1010.1
20220124023159 33 180 0.0 0.0 0.00 0.00 2.38 90 1010.1
20220124022316 33 135 0.0 0.0 0.00 0.00 2.38 90 1010.0
20220124021553 33 135 0.0 0.0 0.00 0.00 2.38 90 1010.1
20220124020800 33 135 0.0 0.0 0.00 0.00 2.38 90 1010.0
20220124020054 33 135 0.0 0.0 0.00 0.00 2.38 90 1010.0
20220124015156 33 135 0.0 0.0 0.00 0.00 2.38 90 1010.1
20220124014205 34 135 0.0 0.0 0.00 0.00 2.38 90 1010.3
20220124013228 34 135 0.0 0.0 0.00 0.00 2.38 90 1010.4
20220124012330 34 135 0.0 0.0 0.00 0.00 2.38 90 1010.4
20220124011750 34 135 0.0 0.0 0.00 0.00 2.38 90 1010.6
20220124010830 34 135 0.0 0.0 0.00 0.00 2.38 90 1010.5
20220124010129 34 135 0.0 0.0 0.00 0.00 2.38 90 1010.6
20220124005351 34 135 0.0 0.0 0.00 0.00 2.38 90 1010.7
20220124004827 35 135 0.0 0.0 0.00 0.00 2.38 90 1010.7
20220124003839 35 135 0.0 0.0 0.00 0.00 2.38 90 1010.8
20220124003206 35 135 0.0 0.0 0.00 0.00 2.38 90 1010.9
20220124002538 36 135 0.0 0.0 0.00 0.00 2.38 87 1010.9
20220124001611 36 135 0.0 0.0 0.00 0.00 2.38 85 1010.9
20220124000747 36 225 0.0 0.0 0.00 0.00 2.38 82 1010.8
20220123235846 36 45 0.0 0.0 0.00 0.00 2.38 82 1010.8
20220123234901 37 135 0.0 0.0 0.00 0.00 2.38 81 1010.7
20220123234359 37 135 0.0 0.0 0.00 0.00 2.38 80 1010.8
20220123233707 37 135 0.0 0.0 0.00 0.00 2.38 80 1010.9
20220123232909 37 135 0.0 0.0 0.00 0.00 2.38 80 1010.8
20220123232233 38 135 0.0 0.0 0.00 0.00 2.38 78 1010.9
20220123231611 38 135 0.0 0.0 0.00 0.00 2.38 79 1011.0
20220123230816 39 135 0.0 0.0 0.00 0.00 2.38 75 1010.9
20220123230248 40 135 0.0 0.0 0.00 0.00 2.38 70 1010.9
20220123225535 40 135 0.0 0.0 0.00 0.00 2.38 68 1010.9
20220123224944 41 135 0.0 0.0 0.00 0.00 2.38 66 1010.8
20220123224123 42 225 0.0 0.0 0.00 0.00 2.38 63 1010.8
20220123223150 42 225 0.0 0.0 0.00 0.00 2.38 61 1010.8
20220123222520 43 225 0.0 0.0 0.00 0.00 2.38 60 1010.9
20220123221752 43 135 0.0 0.0 0.00 0.00 2.38 60 1010.8
20220123220945 44 180 0.0 0.0 0.00 0.00 2.38 57 1010.7
20220123220014 44 210 0.0 0.0 0.00 0.00 2.38 57 1010.8
20220123215329 44 165 0.0 0.0 0.00 0.00 2.38 56 1010.7
20220123214604 45 210 0.0 0.0 0.00 0.00 2.38 55 1010.8
20220123214043 45 150 0.0 0.0 0.00 0.00 2.38 57 1010.7
20220123213434 45 225 0.0 0.0 0.00 0.00 2.38 53 1010.7
20220123212806 45 195 0.0 0.0 0.00 0.00 2.38 53 1010.6
20220123212101 46 225 0.0 0.0 0.00 0.00 2.38 53 1010.3
20220123211322 47 210 0.0 0.0 0.00 0.00 2.38 50 1010.5
20220123210501 47 195 0.0 0.0 0.00 0.00 2.38 49 1010.6
20220123205821 47 240 0.0 0.0 0.00 0.00 2.38 50 1010.8
20220123204933 47 195 0.0 0.0 0.00 0.00 2.38 50 1010.8
20220123204342 47 195 0.0 0.0 0.00 0.00 2.38 50 1010.9
20220123203836 46 195 0.0 0.0 0.00 0.00 2.38 51 1010.9
20220123202923 46 150 0.0 0.0 0.00 0.00 2.38 51 1011.1
20220123202330 46 255 0.0 0.0 0.00 0.00 2.38 51 1010.8
20220123201544 47 210 0.0 0.0 0.00 0.00 2.38 51 1011.1
20220123200630 46 240 0.0 0.0 0.00 0.00 2.38 54 1011.0
20220123200053 46 165 0.0 0.0 0.00 0.00 2.38 53 1011.3
20220123195145 45 150 0.0 0.0 0.00 0.00 2.38 56 1011.4
20220123194433 45 165 0.0 0.0 0.00 0.00 2.38 56 1011.4
20220123193506 44 225 0.0 0.0 0.00 0.00 2.38 58 1011.5
20220123193000 44 210 0.0 0.0 0.00 0.00 2.38 58 1011.8
20220123192427 43 150 0.0 0.0 0.00 0.00 2.38 59 1011.9
20220123191654 43 195 0.0 0.0 0.00 0.00 2.38 61 1012.0
20220123191141 43 180 0.0 0.0 0.00 0.00 2.38 59 1012.1
20220123190339 43 225 0.0 0.0 0.00 0.00 2.38 59 1012.2
20220123185705 43 195 0.0 0.0 0.00 0.00 2.38 60 1012.3
20220123184713 43 120 0.0 0.0 0.00 0.00 2.38 60 1012.6
20220123184108 42 195 0.0 0.0 0.00 0.00 2.38 60 1012.5
20220123183346 42 225 0.0 0.0 0.00 0.00 2.38 60 1012.6
20220123182613 42 195 0.0 0.0 0.00 0.00 2.38 60 1012.8
20220123181640 43 165 0.0 0.0 0.00 0.00 2.38 59 1013.0
20220123181114 42 225 0.0 0.0 0.00 0.00 2.38 60 1013.1
20220123180405 42 240 0.0 0.0 0.00 0.00 2.38 61 1012.9
20220123175739 41 225 0.0 0.0 0.00 0.00 2.38 58 1013.2
20220123174854 41 240 0.0 0.0 0.00 0.00 2.38 60 1013.4
20220123174047 41 180 0.0 0.0 0.00 0.00 2.38 57 1013.6
20220123173112 40 210 0.0 0.0 0.00 0.00 2.38 58 1014.3
20220123172558 40 180 0.0 0.0 0.00 0.00 2.38 61 1014.5
20220123171935 39 150 0.0 0.0 0.00 0.00 2.38 62 1014.8
20220123171039 39 180 0.0 0.0 0.00 0.00 2.38 60 1015.0
20220123170428 39 240 0.0 0.0 0.00 0.00 2.38 60 1015.3
20220123165915 39 210 0.0 0.0 0.00 0.00 2.38 62 1015.5
20220123165241 40 180 0.0 0.0 0.00 0.00 2.38 59 1015.5
20220123164334 39 195 0.0 0.0 0.00 0.00 2.35 61 1015.8
20220123163617 39 210 0.0 0.0 0.00 0.00 2.35 61 1015.8
20220123162715 39 180 0.0 0.0 0.00 0.00 2.35 59 1016.1
20220123162130 40 180 0.0 0.0 0.00 0.00 2.35 61 1016.2
20220123161239 39 270 0.0 0.0 0.00 0.00 2.35 60 1016.4
20220123160552 38 210 0.0 0.0 0.00 0.00 2.33 60 1016.5
20220123160051 39 240 0.0 0.0 0.00 0.00 2.33 59 1016.4
20220123155109 38 195 0.0 0.0 0.00 0.00 2.33 59 1016.7
20220123154213 39 195 0.0 0.0 0.00 0.00 2.31 56 1016.8
20220123153546 40 180 0.0 0.0 0.00 0.00 2.31 55 1016.9
20220123152925 40 255 0.0 0.0 0.00 0.00 2.29 60 1017.0
20220123151924 39 225 0.0 0.0 0.00 0.00 2.27 54 1017.1
20220123151245 38 180 0.0 0.0 0.00 0.00 2.27 56 1017.1
20220123150707 38 195 0.0 0.0 0.00 0.00 2.24 55 1017.1
20220123150116 37 240 0.0 0.0 0.00 0.00 2.24 59 1017.3
20220123145517 37 180 0.0 0.0 0.00 0.00 2.24 55 1017.4
20220123144641 36 210 0.0 0.0 0.00 0.00 0.42 59 1017.3
20220123143844 35 195 0.0 0.0 0.00 0.00 0.00 59 1017.4
20220123143211 34 225 0.0 0.0 0.00 0.00 0.00 59 1017.4
20220123142543 34 210 0.0 0.0 0.00 0.00 0.00 63 1017.4
20220123141605 32 180 0.0 0.0 0.00 0.00 0.00 68 1017.6
20220123140812 35 165 0.0 0.0 0.00 0.00 0.00 85 1018.2
20220123135917 38 165 0.0 0.0 0.00 0.00 0.00 90 1018.1
20220123135255 40 90 0.0 0.0 0.00 0.00 0.00 90 1018.4
20220123134322 42 30 0.0 0.0 0.00 0.00 0.00 90 1018.5
20220123133516 43 90 0.0 0.0 0.00 0.00 0.00 90 1018.6
20220123132913 43 135 0.0 0.0 0.00 0.00 0.00 90 1018.7
20220123132129 44 135 0.0 0.0 0.00 0.00 0.00 90 1018.7
20220123131326 44 135 0.0 0.0 0.00 0.00 0.00 90 1018.8
20220123130719 45 135 0.0 0.0 0.00 0.00 0.00 90 1018.9
20220123125803 45 135 0.0 0.0 0.00 0.00 0.00 90 1019.0
20220123125245 45 135 0.0 0.0 0.00 0.00 0.00 90 1019.0
20220123124611 45 135 0.0 0.0 0.00 0.00 0.00 90 1019.0
20220123123733 45 135 0.0 0.0 0.00 0.00 0.00 90 1018.9
20220123123229 45 135 0.0 0.0 0.00 0.00 0.00 90 1018.9
20220123122412 45 135 0.0 0.0 0.00 0.00 0.00 90 1018.9
20220123121548 45 120 0.0 0.0 0.00 0.00 0.00 90 1018.7
20220123120615 45 0 0.0 0.0 0.00 0.00 0.00 90 1018.8
20220123115913 46 330 0.0 0.0 0.00 0.00 0.00 90 1018.7
20220123115155 46 0 0.0 0.0 0.00 0.00 0.00 90 1018.6
20220123114214 46 165 0.0 0.0 0.00 0.00 0.00 90 1018.6
20220123113314 46 180 0.0 0.0 0.00 0.00 0.00 90 1018.7
20220123112706 46 45 0.0 0.0 0.00 0.00 0.00 90 1018.7
20220123111826 46 150 0.0 0.0 0.00 0.00 0.00 90 1018.6
20220123110825 46 135 0.0 0.0 0.00 0.00 0.00 90 1018.7
20220123105928 46 135 0.0 0.0 0.00 0.00 0.00 90 1018.8
20220123104953 46 135 0.0 0.0 0.00 0.00 0.00 90 1018.8
20220123104052 46 135 0.0 0.0 0.00 0.00 0.00 90 1018.7
20220123103204 46 135 0.0 0.0 0.00 0.00 0.00 90 1018.8
20220123102600 46 135 0.0 0.0 0.00 0.00 0.00 90 1018.8
20220123101932 46 135 0.0 0.0 0.00 0.00 0.00 90 1018.8
20220123101212 46 135 0.0 0.0 0.00 0.00 0.00 90 1018.8